STARLINK-36136, 66967

Orbit data source: Space-Track

STARLINK-36136, 66967 is a payload satellite owned by SpaceX/Seattle (US) in LEO that was launched on Mon, 08 Dec 2025 UTC via an FALCON 9 launch vehicle from the Air Force Eastern Test Range (AFETR). Payload-class satellites include a variety of spacecraft equipped with specific instruments for various scientific and technological missions. These include communications satellites like Starlink; space stations such as the ISS; scientific satellites like the Hubble; Earth observation satellites from companies like Planet Labs, Umbra, and HawkEye 360; GPS; miniature CubeSats for education and research; and military/defense satellites.

Loading next visibility...
Identifier
66967, 2025-288J
Orbit
LEO
Country
Flag of USUS
Related business
Manufacturer
SpaceX/Seattle
Mission
Operational Commercial Communications
Bus & Motor
STARLINK V2MO, Unknown motor
Mass
575 kg wet, ~530 kg dry
Launch date (UTC)
2025-12-08 (5 months ago)
Launch vehicle
FALCON 9
Launch site
Air Force Eastern Test Range (AFETR)
Object type
Payload
Rocket body
Debris
Shape & HBR
Box + 2 Pan, 17.7 m
Radar Cross Section
36.964 m²

Expand to show TLE details & history
Last TLE update: 16 hours ago

TLE from 16 hours ago
0 STARLINK-36136
1 66967U 25288J   26129.92632418  .00016240  00000-0  59854-3 0  9991
2 66967  43.0037  37.5457 0001471 265.1238  94.9446 15.27571439 24651
Epoch: 2026-05-09T22:13Z
TLE epoch observation values (Epoch: 2026-05-09T22:13:54.409Z)
Latitude
0.00001°
Longitude
-163.66774°
Altitude
482.938 km
Speed
7.626 km/s
True Right ascension
02h 30m 10s
True Declination
0° 00' 00"
Sunlit
Object was in daylight at epoch
Visualization orbit readout
Latitude
Unknown
Longitude
Unknown
Altitude
Unknown
Speed
Unknown
Apparent Right ascension
Unknown
Apparent Declination
Unknown
Sunlit
N/A
Visualization observer readout
Local Sidereal Time
22:05:19
Azimuth
Unknown
Elevation
Unknown
Doppler factor
Unknown
Orbital elements
Apogee altitude
486.029 km
Perigee altitude
484.01 km
Semi-major axis
6,863.156 km
Eccentricity
0.00015
Inclination
43.0037°
RAAN
37.5457°
Arg. of periapsis
265.1238°
True anomaly
94.96139°
Mean anomaly
94.9446°
Eccentric anomaly
94.953°
Mean motion
3.81731 °/min
Orbital period
94.31 mins
BSTAR
0.00059854
Loading maneuver chart data...
Computing Atmospheric mass density...
Loading historical data...
Loading historical data...
Loading historical data...
Loading historical data...
Loading historical data...
Loading historical data...
Loading historical data...

Documentation

Showing up to 5 results
|